{"data":{"norad_id":57773,"epoch":"2026-05-25T05:04:21.463392Z","epoch_age_seconds":56374,"freshness":"FRESH","line1":"1 57773U 23134C   26145.21135953  .00011518  00000+0  42782-3 0  9990","line2":"2 57773  43.0001 125.4178 0000669 328.2243  31.8568 15.27549289151170","mean_motion":15.27549289,"eccentricity":6.69e-5,"inclination_deg":43.0001,"raan_deg":125.4178,"arg_perigee_deg":328.2243,"mean_anomaly_deg":31.8568,"bstar":0.00042782,"rev_number":15117,"period_min":94.26864392328,"perigee_km":482.68203786053,"apogee_km":483.6000768646,"semimajor_km":6861.2780573626,"source":"CELESTRAK","updated_at":"2026-05-25T13:38:18.403860Z"}}